Regional Weather Roundup
Issued by NWS Albany, NY

Home | Current Version | Previous Version | Text Only | Print | Product List | Glossary On
Versions: 1 2 3 4 5 6 7 8 9 10 11 12 13 14 15 16 17 18 19 20 21 22 23 24 25 26 27 28 29 30 31 32 33 34 35 36 37 38 39 40 41 42 43 44 45 46 47 48 49 50
102
ASUS41 KALY 261710
RWRALY

NEW YORK STATE HOURLY WEATHER ROUNDUP
NATIONAL WEATHER SERVICE ALBANY NY
1200 PM EST SUN FEB 26 2017

NOTE: "FAIR" INDICATES FEW OR NO CLOUDS BELOW 12,000 FEET WITH NO
SIGNIFICANT WEATHER AND/OR NO OBSTRUCTIONS TO VISIBILITY.

NYZ032-033-038>043-046>054-057>066-NYZ062>081-082-084-261800-
EAST


CITY           SKY/WX    TMP DP  RH WIND       PRES   REMARKS
ALBANY         CLOUDY    34  14  43 NW26G36   29.99R WCI  21
GLENS FALLS    MOSUNNY   34  13  41 W21G32    29.95R WCI  22
POUGHKEEPSIE   PTSUNNY   36  14  40 NW14G26   29.99R WCI  27
NEWBURGH       PTSUNNY   36  19  51 NW14G25   30.00R WCI  27
MONTGOMERY     CLOUDY    36  19  50 NW15G24   30.00R WCI  27
WHITE PLAINS   PTSUNNY   37  16  42 NW16G26   29.98R WCI  28
ISLIP          MOSUNNY   41  18  39 W21G29    29.98R
NEW YORK CITY  MOSUNNY   41  15  35 W18G31    30.01R
CENTRAL PARK   PTSUNNY   40  16  37 NW8G18    30.04R WCI  34
$$

NYZ005>009-017-018-044>046-055-056-261800-
CENTRAL


CITY           SKY/WX    TMP DP  RH WIND       PRES   REMARKS
FULTON         LGT SNOW  30  24  78 W10       30.03S WCI  21
SYRACUSE       CLOUDY    32  20  61 NW16      30.02S WCI  21
ROME           CLOUDY    30  18  60 NW16G28   30.02R WCI  19
ELMIRA         CLOUDY    32  13  45 W18       30.03R WCI  20
BINGHAMTON     CLOUDY    27  16  63 NW13      29.97R WCI  16
MONTICELLO     CLOUDY   N/A N/A N/A NW14G28   29.97R
$$

NYZ026>034-041>043-087-261800-
NORTH


CITY           SKY/WX    TMP DP  RH WIND       PRES   REMARKS
WATERTOWN      PTSUNNY   33  21  61 W17G23    30.01S WCI  22
FORT DRUM      NOT AVBL
OGDENSBURG     FAIR      34  13  41 W16G23    29.97R WCI  23
MASSENA        SUNNY     30  12  47 W17G23    29.96R WCI  18
SARANAC LAKE   MOSUNNY   24  13  62 W14G26    29.84R WCI  12
PLATTSBURGH    PTSUNNY   33  11  39 SW8G21    29.90R WCI  26
$$

NYZ001>004-010>016-019>021-085-261800-
WEST


CITY           SKY/WX    TMP DP  RH WIND       PRES   REMARKS
NIAGARA FALLS  CLOUDY    32  17  54 W15G22    30.07R WCI  22
BUFFALO        PTSUNNY   30  14  51 SW20G26   30.07R WCI  17
DUNKIRK        CLOUDY    28  18  66 W17G23    30.11R WCI  16
JAMESTOWN      CLOUDY    25  16  68 W17       30.05R WCI  11
WELLSVILLE     CLOUDY    26  14  60 W13G23    30.01R WCI  15
ROCHESTER      CLOUDY    33  18  53 W15G24    30.05R WCI  23
PENN YAN       LGT SNOW  28  19  69 NW8       30.04R VSB 1   WCI  20
$$

             KEY
       WCI = WIND CHILL INDEX
       VSB = VISIBILITY
       HX  = HEAT INDEX
$$




USA.gov is the U.S. government's official web portal to all federal, state and local government web resources and services.